TIANWANG 1A (TW-1A)
1 40928U 15051D   19300.85854487  .00003655  00000-0  89303-4 0  9993
2 40928  97.1355 329.2305 0009978 325.9311 159.1194 15.41412614229378
LAPAN A2
1 40931U 15052B   19298.08603472 -.00000769  00000-0 -19656-3 0  9993
2 40931   5.9852 220.8114 0010501 166.6827 193.4547 14.76605714220276
LQSAT
1 40958U 15057A   19300.79644109  .00000044  00000-0  14449-4 0  9991
2 40958  97.8856   6.3603 0018294 176.2633 183.8716 14.73093553218107
CHUBUSAT 2
1 41338U 16012B   19300.43685210  .00000430  00000-0  26749-4 0  9990
2 41338  31.0042  33.8418 0013921 318.2386  41.7187 15.00199206202561
CHUBUSAT 3
1 41339U 16012C   19300.65729390  .00000342  00000-0  19829-4 0  9996
2 41339  31.0112  30.3649 0013735 327.4411  32.5378 15.00370699202592
OUFTI-1
1 41458U 16025C   19300.81674503  .00002264  00000-0  11857-3 0  9992
2 41458  98.1006  34.3318 0164358 276.1570  82.0952 15.06112978192306
E-STAR-2
1 41459U 16025D   19300.73225111  .00001972  00000-0  10460-3 0  9995
2 41459  98.1007  33.8286 0165652 277.7977  80.4520 15.05735183192268
AAUSAT 4
1 41460U 16025E   19300.73943125  .00002946  00000-0  15001-3 0  9997
2 41460  98.0952  35.4184 0156034 269.4145  88.9315 15.07731669192411
NUSAT 1
1 41557U 16033B   19300.81427221  .00002156  00000-0  82790-4 0  9999
2 41557  97.4149  27.5439 0013535 187.6851 172.4183 15.27477043190108
BEESAT 4
1 41619U 16040W   19300.10966687  .00001932  00000-0  84051-4 0  9995
2 41619  97.3533 359.8188 0009638 287.2610  72.7572 15.23402308173714
PRATHAM
1 41783U 16059A   19300.70931710  .00000084  00000-0  25600-4 0  9994
2 41783  98.0524 357.2938 0032866 334.0265  25.9286 14.63016400164703
ALSAT 1N
1 41789U 16059G   19300.85940596  .00000058  00000-0  20133-4 0  9995
2 41789  98.0555 359.7242 0027557 322.6574  37.2696 14.64270420164846
NAYIF 1
1 42017U 17008BX  19299.75791247  .00002079  00000-0  84053-4 0  9994
2 42017  97.3902   5.4383 0007847  75.7454 284.4655 15.25827503149755
MAX VALIER SAT
1 42778U 17036P   19299.89301697 +.00001367 +00000-0 +62399-4 0  9998
2 42778 097.3397 354.5964 0013811 123.5155 236.7403 15.22206311130046
